Flag for USA

Past Weather in Weston, Connecticut, USA — Yesterday and Last 2 Weeks

Now
69 °F

Light rain. Fog.


Feels Like: 69 °F
Forecast: 74 / 66 °F
Wind: 7 mph from South

Location: Danbury Municipal Airport
Current Time: Sep 28, 2020 at 6:16:01 am
Latest Report: Sep 28, 2020 at 5:08 am
Visibility: 5 mi
Pressure29.89 "Hg
Humidity: 96%
Dew Point: 68 °F
Location of WestonLocation

Past Weather in Weston — Graph

°F

Weston Temperature Yesterday

Maximum temperature yesterday: 77 °F (at 2:53 pm)
Minimum temperature yesterday: 61 °F (at 5:38 am)
Average temperature yesterday: 69 °F

High & Low Weather Summary for the Past Weeks

 TemperatureHumidityPressure
High78 °F (Sep 23, 3:53 pm)100% (Sep 17, 12:53 am)30.61 "Hg (Sep 17, 12:53 am)
Low32 °F (Sep 21, 6:53 am)12% (Sep 13, 9:53 am)29.80 "Hg (Sep 23, 3:53 pm)
Average60 °F74%30.13 "Hg
* Reported Sep 13 5:53 am — Sep 28 5:08 am, Weston. Weather by CustomWeather, © 2020

Note: Actual official high and low records may vary slightly from our data, if they occured in-between our weather recording intervals... More about our weather records

Weston Weather History for the Previous 24 Hours

Scroll right to see more
 ConditionsComfort  
Time TempWeatherWind HumidityBarometerVisibility
5:08 am
Mon, Sep 28
69 °FLight rain. Fog.7 mph96%29.89 "Hg5 mi
4:53 am69 °FLight rain. Fog.8 mph96%29.88 "Hg2 mi
4:32 am69 °FLight rain. Fog.6 mph96%29.89 "Hg2 mi
3:53 am69 °FLight rain. Fog.6 mph96%29.88 "Hg3 mi
3:30 am69 °FLight rain. Fog.6 mph96%29.89 "Hg3 mi
2:53 am69 °FLight rain. Fog.7 mph96%29.89 "Hg2 mi
1:53 am70 °FLight rain. Fog.5 mph97%29.90 "Hg2 mi
1:26 am70 °FLight rain. Fog.6 mph97%29.93 "Hg2 mi
1:15 am70 °FLight rain. Fog.7 mph97%29.92 "Hg3 mi
12:53 am70 °FFog.7 mph97%29.92 "Hg5 mi
12:08 am70 °FFog.3 mph97%29.95 "Hg2 mi
11:53 pm
Sun, Sep 27
70 °FFog.3 mph97%29.94 "Hg2 mi
11:43 pm70 °FFog.No wind97%29.96 "Hg2 mi
11:18 pm70 °FLight rain. Fog.No wind97%29.95 "Hg4 mi
11:03 pm70 °FLight rain. Fog.No wind97%29.96 "Hg2 mi
10:53 pm70 °FRain. Fog.No wind97%29.95 "Hg1 mi
10:38 pm70 °FLight rain. Fog.No wind97%29.96 "Hg2 mi
9:53 pm71 °FLow clouds.5 mph93%29.94 "Hg9 mi
8:53 pm71 °FMostly cloudy.3 mph93%29.96 "Hg10 mi
7:53 pm71 °FOvercast.No wind90%29.96 "Hg10 mi
6:53 pm72 °FMostly cloudy.5 mph84%29.96 "Hg10 mi
6:12 pm74 °FPartly sunny.7 mph79%29.96 "Hg10 mi
5:53 pm74 °FBroken clouds.9 mph79%29.95 "Hg10 mi
4:53 pm76 °FScattered clouds.8 mph69%29.94 "Hg10 mi
3:53 pm76 °FPartly sunny.7 mph69%29.96 "Hg10 mi
2:53 pm77 °FPartly sunny.7 mph64%29.96 "Hg10 mi
1:53 pm76 °FMostly cloudy.6 mph64%29.98 "Hg10 mi
12:53 pm74 °FMostly cloudy.7 mph71%30.00 "Hg10 mi
11:53 am73 °FMostly cloudy.6 mph74%30.02 "Hg10 mi
10:53 am71 °FMostly cloudy.6 mph81%30.03 "Hg10 mi
9:53 am69 °FMostly cloudy.5 mph87%30.04 "Hg10 mi
8:53 am67 °FMostly cloudy.5 mph90%30.03 "Hg10 mi
7:53 am65 °FLow clouds.No wind94%30.03 "Hg10 mi
6:53 am64 °FLow clouds.No wind94%30.01 "Hg10 mi
6:09 am62 °FMostly cloudy.No wind96%30.03 "Hg9 mi
6:00 am62 °FPartly cloudy.No wind96%30.02 "Hg10 mi
Weather by CustomWeather, © 2020

See weather overview